This is the latest recevied weather packets stored in our database for station/object K8BCO. If no packets are shown the sender has not sent any weather packets the latest 10 day(s).
| Time | Temp. | Humidity | Pressure | Rain* | Wind** | Luminosity | Snow |
|---|---|---|---|---|---|---|---|
| 1777896919 | 11.11° C | 60% | 990.8 hPa | 0 mm | - | 79 W/m² | - |
| 1777896316 | 11.11° C | 61% | 991.1 hPa | 0 mm | - | 66 W/m² | - |
| 1777895719 | 11.11° C | 61% | 991.2 hPa | 0 mm | - | 55 W/m² | - |
| 1777895119 | 11.11° C | 62% | 991.3 hPa | 0 mm | - | 61 W/m² | - |
| 1777894518 | 10.56° C | 63% | 991.6 hPa | 0 mm | - | 51 W/m² | - |
| 1777893919 | 10.56° C | 65% | 991.7 hPa | 0 mm | - | 41 W/m² | - |
| 1777893322 | 10° C | 66% | 992 hPa | 0 mm | - | 26 W/m² | - |
| 1777892722 | 10° C | 67% | 992.3 hPa | 0 mm | - | 17 W/m² | - |
| 1777892117 | 10° C | 68% | 992.6 hPa | 0 mm | - | 8 W/m² | - |
| 1777891520 | 10° C | 69% | 992.9 hPa | 0 mm | - | 5 W/m² | - |
| 1777890920 | 9.44° C | 69% | 993 hPa | 0 mm | - | 2 W/m² | - |
| 1777890320 | 9.44° C | 70% | 993.3 hPa | 0 mm | - | 1 W/m² | - |
| 1777889720 | 9.44° C | 70% | 993.6 hPa | 0 mm | - | 0 W/m² | - |
| 1777889120 | 9.44° C | 70% | 993.7 hPa | 0 mm | - | 0 W/m² | - |
| 1777888527 | 9.44° C | 70% | 994 hPa | 0 mm | - | 0 W/m² | - |
| 1777887920 | 10° C | 69% | 994.2 hPa | 0 mm | - | 0 W/m² | - |
| 1777887321 | 10° C | 68% | 994.4 hPa | 0 mm | - | 0 W/m² | - |
| 1777886721 | 9.44° C | 68% | 994.7 hPa | 0 mm | - | 0 W/m² | - |
| 1777886121 | 9.44° C | 67% | 995 hPa | 0 mm | - | 0 W/m² | - |
| 1777885521 | 10° C | 67% | 995 hPa | 0 mm | - | 0 W/m² | - |
| 1777884923 | 10° C | 67% | 995.2 hPa | 0 mm | - | 0 W/m² | - |
| 1777884316 | 10° C | 66% | 995.4 hPa | 0 mm | - | 0 W/m² | - |
| 1777883716 | 10° C | 65% | 995.6 hPa | 0 mm | - | 0 W/m² | - |
| 1777883116 | 10° C | 64% | 995.7 hPa | 0 mm | - | 0 W/m² | - |
| 1777882517 | 10° C | 63% | 996 hPa | 0 mm | - | 0 W/m² | - |
* Rain latest hour (hover to see other rain measurements)
** Current wind speed in m/s (hover to see current wind gust speed)